Regional Weather Roundup
Issued by NWS Goodland, KS

Home | Current Version | Previous Version | Graphics & Text | Print | Product List | Glossary On
Versions: 1 2 3 4 5 6 7 8 9 10 11 12 13 14 15 16 17 18 19 20 21 22 23 24 25 26 27 28 29 30 31 32 33 34 35 36 37 38 39 40 41 42 43 44 45 46 47 48 49 50
000
ASUS43 KGLD 060459
RWRGLD

GOODLAND FORECAST AREA HOURLY WEATHER ROUNDUP
NATIONAL WEATHER SERVICE GOODLAND KS
1100 PM MDT TUE MAY 05 2015

...OFFICIAL OBSERVATIONS...

CITY           SKY/WX    TMP DP  RH WIND       PRES   REMARKS
GOODLAND KS    MOCLDY    52  51  97 S17       29.76F
HILL CITY KS   CLOUDY    62  59  90 S13       29.84S
IMPERIAL NEB   CLOUDY    56  54  93 SE14      29.77F
MCCOOK NEB     CLOUDY    60  58  92 SE14      29.79F
AKRON CO       CLOUDY    52  52 100 SE18      29.72F
BURLINGTON CO  MOCLDY    51  49  92 S15       29.75F
LIMON CO       CLOUDY    48  46  93 W5        29.76F
$$

...UNOFFICIAL OBSERVATIONS...

CITY           SKY/WX    TMP DP  RH WIND       PRES   REMARKS
GOVE KS          N/A     58  32  37 MISG        N/A
LENORA KS        N/A     59  32  36 MISG        N/A
SHARON SPRINGS   N/A     53  51  95 MISG        N/A
KIT CARSON CO    N/A     51  49  92 MISG        N/A
YUMA CO          N/A     56  56 100 E18         N/A
$$



USA.gov is the U.S. government's official web portal to all federal, state and local government web resources and services.